Погода в Пасу-Фунду

Бразилия     28°15′37″S   52°24′40″W
темп.,
°C
ветер,
м/с
пор.,
м/с
влажн.,
%
обл.,
%
осадки,
мм/ч
давл.,
гПа
погр.,
м
20 января, чт
чт2000:00+22св34683 0.0 101567
03:00+22св366818 0.0 101492
06:00+21св497759 0.0 1015159
09:00+30с46455 0.0 1015940
12:00+36ссз22290 0.0 10142726
15:00+37юв332170 0.0 10103699
18:00+34св4430100 0.0 10101439
21:00+25всв356332 0.3 101277
21 января, пт
пт2100:00+23вюв227193 0.2 101341
03:00+22всв411780 0.2 1012233
06:00+20св510815 0.0 1012197
09:00+31с68424 0.0 1012971
12:00+37ссз542612 0.0 10102949
15:00+32зюз2237100 0.1 1008193
18:00+32ю353249 0.0 1007546
21:00+27в22501 0.1 100919
22 января, сб
сб2200:00+25ссв365580 0.0 1010113
03:00+23св59600 0.0 1010170
06:00+22ссв510653 0.0 1011176
09:00+32ссз56380 0.0 10121057
12:00+37зсз542645 0.0 10103050
15:00+35всв5529100 0.1 1008622
18:00+34вюв562928 0.0 1007623
21:00+27всв344534 0.0 100950
23 января, вс
вс2300:00+26всв612540 0.0 1009263
03:00+24св6125985 0.0 1009245
06:00+22св510713 0.1 1011153
09:00+32ссз57373 0.3 1012692
12:00+38сз632470 0.0 10103460
15:00+40сз431961 0.0 10073479
18:00+28вюв455681 0.6 100880
21:00+28в234862 0.7 100822
24 января, пн
пн2400:00+24в22631 0.1 101026
03:00+23св48692 0.1 1009134
06:00+22св35692 0.1 101171
09:00+33с24355 0.2 1011706
12:00+40сз322162 0.0 10083665
15:00+35всв663067 0.2 1007476
18:00+32ююз583991 0.4 1006364
21:00+26вюв81568100 0.5 1011642